Regional Weather Roundup
Issued by NWS Little Rock, AR

Home | Current Version | Previous Version | Text Only | Print | Product List | Glossary Off
Versions: 1 2 3 4 5 6 7 8 9 10 11 12 13 14 15 16 17 18 19 20 21 22 23 24 25 26 27 28 29 30 31 32 33 34 35 36 37 38 39 40 41 42 43 44 45 46 47

000
ASUS44 KLZK 021505
RWRLZK

WEATHER ROUNDUP FOR ARKANSAS
NATIONAL WEATHER SERVICE LITTLE ROCK AR
1000 AM CDT WED SEP 02 2015

NOTE: "FAIR" INDICATES FEW OR NO CLOUDS BELOW 12,000 FEET WITH NO
SIGNIFICANT WEATHER AND/OR OBSTRUCTIONS TO VISIBILITY.

ARZ001-003-010-029-021600-
NORTHWEST ARKANSAS

CITY           SKY/WX    TMP DP  RH WIND       PRES   REMARKS
FAYETTEVILLE   SUNNY     79  69  71 SW12      30.12S
FORT SMITH     SUNNY     81  68  64 E3        30.09F
HARRISON       SUNNY     78  70  76 SE6       30.14S
BENTONVILLE    SUNNY     79  66  65 S8        30.13S
ROGERS         SUNNY     80  68  66 S10       30.13S
SILOAM SPGS    SUNNY     79  66  65 S14       30.11S
HIGHFILL       SUNNY     79  70  74 S13       30.12S
SPRINGDALE     SUNNY     81  68  65 SW10      30.15R
$$

ARZ004-005-016-021600-
NORTH CENTRAL ARKANSAS

CITY           SKY/WX    TMP DP  RH WIND       PRES   REMARKS
BATESVILLE     SUNNY     82  72  69 CALM      30.12R HX  87
FLIPPIN        SUNNY     79  66  65 CALM      30.11S
MTN HOME       SUNNY     79  68  69 CALM      30.13R
$$

ARZ040-041-021600-
WEST CENTRAL ARKANSAS

CITY           SKY/WX    TMP DP  RH WIND       PRES   REMARKS
MENA           SUNNY     81  72  74 CALM      30.13S
MOUNT IDA      SUNNY     81  69  67 CALM      30.10S
$$

ARZ009-017-025-026-028-021600-
NORTHEAST ARKANSAS

CITY           SKY/WX    TMP DP  RH WIND       PRES   REMARKS
JONESBORO      SUNNY     82  72  71 SE5       30.11S HX  87
NEWPORT        SUNNY     84  72  67 VRB3      30.13R HX  89
WALNUT RIDGE   SUNNY     82  70  65 CALM      30.11S HX  86
BLYTHEVILLE    SUNNY     85  72  65 CALM      30.12S HX  91
$$

ARZ022-023-033-042-044-021600-
CENTRAL ARKANSAS

CITY           SKY/WX    TMP DP  RH WIND       PRES   REMARKS
LITTLE ROCK    MOSUNNY   85  68  56 CALM      30.10S HX  88
N LITTLE ROCK  MOSUNNY   83  72  68 CALM      30.10S HX  88
SEARCY         SUNNY     84  73  69 NE3       30.12S HX  90
HOT SPRINGS    SUNNY     81  70  69 VRB3      30.11S
RUSSELLVILLE   SUNNY     81  70  69 CALM      30.10S
$$

ARZ036-021600-
EAST ARKANSAS

CITY           SKY/WX    TMP DP  RH WIND       PRES   REMARKS
WEST MEMPHIS   SUNNY     85  72  65 CALM      30.10S HX  91
$$

ARZ050-053-066-070-073-021600-
SOUTHWEST ARKANSAS

CITY           SKY/WX    TMP DP  RH WIND       PRES   REMARKS
ARKADELPHIA    FAIR      83  72  69 CALM      30.11R HX  88
CAMDEN         SUNNY     82  70  65 NW3       30.09S HX  86
TEXARKANA      SUNNY     83  70  64 CALM      30.10S HX  87
EL DORADO      PTSUNNY   79  71  76 N7        30.10S
DE QUEEN       SUNNY     81  71  71 W3        30.08S HX  85
$$

ARZ056-057-069-021600-
SOUTHEAST ARKANSAS

CITY           SKY/WX    TMP DP  RH WIND       PRES   REMARKS
PINE BLUFF     SUNNY     82  72  71 CALM      30.10S HX  87
STUTTGART      CLOUDY    79  70  73 E3        30.10S
MONTICELLO     PTSUNNY   80  73  79 CALM      30.09S

$$




USA.gov is the U.S. government's official web portal to all federal, state and local government web resources and services.